Whitefield, NH

12:45 PM EST on February 27, 2017 (GMT -0500)
Mount Washington Regional

Weather History for KHIE - July, 2014

Change the Weather History Date:

Friday, July 4, 2014

  Actual Average Record
Temperature  
Mean Temperature 66 °F -  
Max Temperature 71 °F 75 °F 91 °F (2003)
Min Temperature 59 °F 48 °F 41 °F (2007)
Growing Degree Days 16 (Base 50)    
Moisture  
Dew Point 63 °F    
Average Humidity 88    
Maximum Humidity 100    
Minimum Humidity 73    
Precipitation  
Precipitation 0.49 in - - ()
Sea Level Pressure  
Sea Level Pressure 29.98 in    
Wind  
Wind Speed 1 mph (NNW)    
Max Wind Speed 9 mph    
Max Gust Speed -    
Visibility 8 miles    
Events Fog , Rain    
Averages and records for this station are not official NWS values.
T = Trace of Precipitation, MM = Missing Value Source: NWS Daily Summary

Daily Weather History Graph

Daily Weather History Graph

Search for Another Location

Airport or City:

Trip Planner

Search our weather history database for the weather conditions in past years. The results will help you decide how hot, cold, wet, or windy it might be!

Date:

Astronomy

Jul. 04, 2014 Rise Set
Actual Time 5:07 AM EDT 8:33 PM EDT
Civil Twilight 4:31 AM EDT 9:09 PM EDT
Nautical Twilight 3:43 AM EDT 9:57 PM EDT
Astronomical Twilight 2:43 AM EDT 10:57 PM EDT
Moon 12:17 PM EDT (7/4) No Moon Set
Length of Visible Light 16h 38m
Length of Day
15h 25m
Waxing Crescent, 42% of the Moon is Illuminated
Jul 4
Waxing Crescent
Jul 5
First Quarter
Jul 12
Full
Jul 18
Last Quarter
Jul 26
New

Hourly Weather History & Observations

Time (EDT) Temp. Dew Point Humidity Pressure Visibility Wind Dir Wind Speed Gust Speed Precip Events Conditions
12:52 AM 66.9 °F 64.9 °F 93% 29.94 in 10.0 mi Calm Calm - 0.00 in   Mostly Cloudy
1:50 AM 64.4 °F 64.4 °F 100% 29.93 in 2.5 mi Calm Calm - N/A   Clear
1:52 AM 64.9 °F 64.0 °F 97% 29.92 in 2.5 mi Calm Calm - N/A   Clear
1:54 AM 64.9 °F 64.0 °F 97% 29.93 in 4.0 mi South 3.5 mph - N/A   Partly Cloudy
2:08 AM 64.9 °F 64.0 °F 97% 29.92 in 7.0 mi Calm Calm - N/A   Mostly Cloudy
2:21 AM 64.9 °F 64.0 °F 97% 29.92 in 4.0 mi SW 3.5 mph - N/A   Overcast
2:37 AM 64.9 °F 64.0 °F 97% 29.92 in 8.0 mi Calm Calm - N/A   Mostly Cloudy
2:52 AM 64.9 °F 63.0 °F 93% 29.92 in 9.0 mi SW 4.6 mph - N/A   Mostly Cloudy
3:21 AM 66.0 °F 64.0 °F 93% 29.94 in 10.0 mi Calm Calm - N/A   Overcast
3:52 AM 66.0 °F 64.0 °F 93% 29.92 in 10.0 mi Calm Calm - N/A   Overcast
4:37 AM 66.0 °F 64.0 °F 93% 29.97 in 10.0 mi Calm Calm - N/A   Overcast
4:52 AM 66.9 °F 64.0 °F 90% 29.95 in 6.0 mi ESE 3.5 mph - 0.00 in Rain Light Rain
5:16 AM 66.0 °F 64.0 °F 93% 29.97 in 9.0 mi Calm Calm - 0.02 in Rain Light Rain
5:52 AM 66.0 °F 64.0 °F 93% 29.96 in 10.0 mi Calm Calm - 0.03 in   Overcast
6:52 AM 66.9 °F 64.0 °F 90% 29.98 in 10.0 mi Calm Calm - 0.00 in   Overcast
7:01 AM 66.9 °F 64.0 °F 90% 29.99 in 10.0 mi Calm Calm - N/A   Overcast
7:44 AM 66.9 °F 64.0 °F 90% 29.98 in 10.0 mi Calm Calm - N/A   Overcast
7:52 AM 66.9 °F 64.0 °F 90% 29.98 in 7.0 mi Calm Calm - 0.00 in Rain Light Rain
8:00 AM 66.9 °F 64.9 °F 93% 29.99 in 1.8 mi Calm Calm - 0.01 in Rain Light Rain
8:04 AM 66.9 °F 64.9 °F 93% 29.99 in 2.0 mi Calm Calm - 0.02 in Rain Light Rain
8:11 AM 66.9 °F 64.9 °F 93% 29.99 in 4.0 mi Calm Calm - 0.02 in Rain Light Rain
8:23 AM 66.9 °F 64.9 °F 93% 29.99 in 9.0 mi Calm Calm - 0.02 in Rain Light Rain
8:39 AM 66.9 °F 64.0 °F 90% 30.00 in 1.8 mi West 4.6 mph - 0.05 in Rain Light Rain
8:43 AM 66.9 °F 64.9 °F 93% 30.00 in 0.2 mi WNW 3.5 mph - 0.21 in Fog , Rain Heavy Rain
8:52 AM 66.0 °F 64.9 °F 96% 29.99 in 0.2 mi Calm Calm - 0.30 in Fog , Rain Heavy Rain
9:09 AM 66.9 °F 64.9 °F 93% 30.00 in 1.2 mi Calm Calm - 0.09 in Rain Light Rain
9:12 AM 66.9 °F 64.9 °F 93% 30.00 in 3.0 mi Calm Calm - 0.09 in Rain Light Rain
9:52 AM 68.0 °F 66.0 °F 93% 30.00 in 10.0 mi Calm Calm - 0.09 in   Overcast
10:04 AM 68.0 °F 64.9 °F 90% 30.01 in 5.0 mi WNW 9.2 mph - 0.01 in Rain Light Rain
10:20 AM 66.9 °F 63.0 °F 87% 30.01 in 10.0 mi NW 8.1 mph - 0.01 in   Overcast
11:00 AM 66.9 °F 63.0 °F 87% 30.02 in 10.0 mi Variable 3.5 mph - N/A   Overcast
11:13 AM 68.0 °F 64.0 °F 87% 30.02 in 10.0 mi North 3.5 mph - N/A   Mostly Cloudy
11:24 AM 68.0 °F 63.0 °F 84% 30.02 in 10.0 mi Calm Calm - N/A   Overcast
11:33 AM 68.0 °F 63.0 °F 84% 30.01 in 10.0 mi Variable 3.5 mph - N/A   Overcast
11:43 AM 68.0 °F 63.0 °F 84% 30.01 in 10.0 mi Calm Calm - N/A   Overcast
11:52 AM 68.0 °F 63.0 °F 84% 30.01 in 10.0 mi Calm Calm - N/A   Overcast
12:03 PM 69.1 °F 63.0 °F 81% 30.01 in 10.0 mi Calm Calm - N/A   Overcast
12:12 PM 69.1 °F 63.0 °F 81% 30.00 in 10.0 mi ENE 3.5 mph - N/A   Overcast
12:52 PM 69.1 °F 63.0 °F 81% 30.00 in 10.0 mi East 4.6 mph - N/A   Overcast
1:02 PM 69.1 °F 64.0 °F 84% 30.01 in 10.0 mi Calm Calm - N/A   Overcast
1:41 PM 70.0 °F 63.0 °F 78% 30.00 in 10.0 mi Calm Calm - N/A   Overcast
1:52 PM 70.0 °F 63.0 °F 78% 29.99 in 10.0 mi NNW 4.6 mph - N/A   Overcast
2:52 PM 70.0 °F 62.1 °F 76% 29.99 in 10.0 mi Calm Calm - N/A   Mostly Cloudy
3:52 PM 71.1 °F 62.1 °F 73% 29.97 in 10.0 mi NNE 3.5 mph - N/A   Mostly Cloudy
4:52 PM 66.9 °F 61.0 °F 81% 29.99 in 9.0 mi North 4.6 mph - 0.00 in Rain Light Rain
5:36 PM 66.0 °F 60.1 °F 81% 29.97 in 9.0 mi NNW 6.9 mph - 0.00 in   Overcast
5:52 PM 64.9 °F 60.1 °F 84% 29.96 in 9.0 mi North 4.6 mph - 0.00 in   Overcast
6:24 PM 64.9 °F 60.1 °F 84% 29.96 in 9.0 mi Variable 4.6 mph - N/A   Overcast
6:52 PM 64.0 °F 59.0 °F 84% 29.98 in 10.0 mi NW 4.6 mph - N/A   Overcast
7:52 PM 63.0 °F 59.0 °F 87% 29.98 in 10.0 mi Variable 6.9 mph - 0.01 in   Overcast
8:52 PM 62.1 °F 55.9 °F 80% 29.96 in 10.0 mi Variable 4.6 mph - 0.00 in   Overcast
9:04 PM 62.1 °F 55.9 °F 80% 29.97 in 10.0 mi Calm Calm - N/A   Overcast
9:52 PM 61.0 °F 55.9 °F 83% 29.96 in 9.0 mi Variable 3.5 mph - 0.01 in Rain Light Rain
10:52 PM 60.1 °F 55.9 °F 86% 29.97 in 8.0 mi Calm Calm - 0.03 in Rain Light Rain
11:52 PM 59.0 °F 55.9 °F 90% 29.95 in 6.0 mi Calm Calm - 0.02 in Rain Light Rain